User: anonymous   Login
Location: Étavigny
(49.1201°N, 2.9800°E)
Time: 10:19:33
(UTC+00:00)
Language:

FENGYUN 1C DEB - Orbit

View from above orbital plane
View from above orbital plane
View from above satellite
View from above satellite

Ground track
Ground track

The orbit data is extracted from the following two-line orbital elements,

1 31937U 99025CMN 24203.84579115  .00016748  00000-0  22591-2 0  9996
2 31937  99.3038 214.7732 0194634  68.8769 293.3114 14.66875401585760
Epoch (UTC): 21 July 2024 20:17:56
Eccentricity: 0.0194634
inclination: 99.3038°
perigee height: 534 km
apogee height: 808 km
right ascension of ascending node: 214.7732°
argument of perigee: 68.8769°
revolutions per day: 14.66875401
mean anomaly at epoch: 293.3114°
orbit number at epoch: 58576

The dashed part of the orbit path shows where the satellite is in the earth's shadow,  

DLR